Home   Weather   Irving   Past weeks

Flag for USA Past Weather in Irving, Texas, USA — Yesterday and Last 2 Weeks

Now
59 °F

Partly cloudy.


Feels Like: 58 °F
Forecast: 45 / 52 °F
Wind: 7 mph from Northwest

Location: Dallas / Fort Worth International Airport

Current Time: Jan 16, 2017 at 7:17:46 pm

Latest Report: Jan 16, 2017 at 5:53 pm


Visibility: 10 mi

Pressure: 29.99 "Hg

Humidity: 62%

Dew Point: 46 °F

Location of IrvingLocation

Past Weather in Irving — Graph

°F

Irving Temperature Yesterday

Maximum temperature yesterday: 66 °F (at 7:25 pm)
Minimum temperature yesterday: 43 °F (at 12:53 am)
Average temperature yesterday: 53 °F

High & Low Weather Summary for the Past Weeks

 TemperatureHumidityPressure
High80 °F (Jan 11, 2:53 pm)100% (Jan 2, 2:53 am)30.79 "Hg (Jan 2, 2:53 am)
Low15 °F (Jan 7, 2:53 am)18% (Jan 8, 3:53 pm)29.73 "Hg (Jan 2, 7:53 am)
Average48 °F73%30.15 "Hg
* Reported Jan 1 5:53 pm — Jan 16 5:53 pm, Irving, Weather by CustomWeather, © 2017

Note: Actual official high and low records may vary slightly from our data, if they occured in-between our weather recording intervals... More about our weather records

Advertising

Irving Weather History for the Previous 24 Hours

Scroll right to see more
 ConditionsComfort  
Time TempWeatherWind HumidityBarometerVisibility
5:53 pm
Mon, Jan 16
59 °FPartly cloudy.7 mph62%29.99 "Hg10 mi
4:53 pm64 °FScattered clouds.9 mph54%29.97 "Hg10 mi
3:53 pm66 °FScattered clouds.10 mph50%29.96 "Hg10 mi
2:53 pm65 °FPassing clouds.9 mph54%29.96 "Hg10 mi
1:53 pm64 °FPassing clouds.10 mph56%29.96 "Hg10 mi
12:53 pm62 °FPassing clouds.7 mph62%29.97 "Hg10 mi
11:53 am60 °FPassing clouds.10 mph69%29.99 "Hg10 mi
10:53 am55 °FPassing clouds.6 mph80%30.01 "Hg10 mi
9:53 am51 °FScattered clouds.6 mph89%30.00 "Hg8 mi
9:29 am49 °FFog.6 mph97%30.00 "Hg4 mi
8:53 am48 °FFog.8 mph100%29.96 "Hg0 mi
7:53 am48 °FFog.6 mph100%29.95 "Hg0 mi
6:53 am49 °FFog.No wind100%29.93 "Hg0 mi
6:37 am49 °FFog.5 mph100%29.93 "Hg1 mi
5:58 am50 °FFog.3 mph100%29.91 "Hg0 mi
5:15 am50 °FFog.No wind100%29.91 "Hg1 mi
5:03 am48 °FFog.No wind100%29.92 "Hg1 mi
4:26 am49 °FFog.6 mph100%29.92 "Hg0 mi
4:14 am50 °FFog.5 mph96%29.92 "Hg1 mi
3:53 am48 °FFog.6 mph100%29.90 "Hg2 mi
3:29 am50 °FFog.5 mph100%29.91 "Hg3 mi
3:10 am51 °FFog.6 mph100%29.90 "Hg2 mi
2:53 am50 °FFog.6 mph100%29.89 "Hg2 mi
1:53 am54 °FLight rain. Mostly cloudy.5 mph100%29.89 "Hg10 mi
12:53 am53 °FPartly cloudy.5 mph100%29.91 "Hg10 mi
11:53 pm
Sun, Jan 15
54 °FRain. Fog.3 mph97%29.89 "Hg5 mi
11:18 pm54 °FLight rain. Mostly cloudy.3 mph93%29.92 "Hg10 mi
10:53 pm54 °FStrong thunderstorms. Fog.3 mph93%29.92 "Hg4 mi
9:53 pm55 °FThunderstorms. Fog.20 mph93%29.87 "Hg6 mi
9:31 pm55 °FStrong thunderstorms. Fog.28 mph100%29.85 "Hg2 mi
9:22 pm55 °FStrong thunderstorms. Fog.33 mph100%29.83 "Hg1 mi
8:53 pm65 °FStrong thunderstorms. Fog.24 mph100%29.76 "Hg1 mi
8:35 pm64 °FStrong thunderstorms. Fog.25 mph100%29.82 "Hg2 mi
8:04 pm66 °FThunderstorms. Mostly cloudy.25 mph93%29.82 "Hg9 mi
7:53 pm66 °FThunderstorms. Fog.24 mph93%29.82 "Hg6 mi
7:25 pm66 °FThunderstorms. Fog.17 mph93%29.85 "Hg4 mi
7:04 pm64 °FThunderstorms. Fog.5 mph100%29.86 "Hg2 mi
Weather by CustomWeather, © 2017

See weather overviewHow to use our weather pages